Weather History for KHSB - January, 2014

Change the Weather History Date:

Friday, January 3, 2014

  Actual Average (KMWA) Record (KMWA)
Temperature  
Mean Temperature 18 °F -  
Max Temperature 28 °F 38 °F 66 °F (2004)
Min Temperature 9 °F 23 °F 1 °F (1979)
Degree Days  
Heating Degree Days 46    
Moisture  
Dew Point 11 °F    
Average Humidity 73    
Maximum Humidity 87    
Minimum Humidity 51    
Precipitation  
Precipitation 0.00 in - - ()
Sea Level Pressure  
Sea Level Pressure 30.42 in    
Wind  
Wind Speed 6 mph (South)    
Max Wind Speed 15 mph    
Max Gust Speed 22 mph    
Visibility 10 miles    
Events      
Averages and records for this station are not official NWS values.
T = Trace of Precipitation, MM = Missing Value Source: NWS Daily Summary

Daily Weather History Graph

Daily Weather History Graph

Search for Another Location

Airport or City:

Trip Planner

Search our weather history database for the weather conditions in past years. The results will help you decide how hot, cold, wet, or windy it might be!

Date:

Astronomy

Jan. 03, 2014 Rise Set
Actual Time 7:09 AM CST 4:47 PM CST
Civil Twilight 6:40 AM CST 5:16 PM CST
Nautical Twilight 6:08 AM CST 5:49 PM CST
Astronomical Twilight 5:36 AM CST 6:21 PM CST
Moon 8:39 AM CST (1/3) 7:53 PM CST (1/3)
Length of Visible Light 10h 36m
Length of Day
9h 37m
Waxing Crescent, 8% of the Moon is Illuminated
Jan 3
Waxing Crescent
Jan 7
First Quarter
Jan 15
Full
Jan 23
Last Quarter
Jan 30
New

Hourly Weather History & Observations

Time (CST) Temp. Windchill Dew Point Humidity Pressure Visibility Wind Dir Wind Speed Gust Speed Precip Events Conditions
12:15 AM 14.0 °F 3.9 °F 9.1 °F 81% 30.47 in 10.0 mi NNW 6.9 mph - N/A   Clear
12:35 AM 13.3 °F 7.3 °F 8.6 °F 82% 30.48 in 10.0 mi NNW 3.5 mph - N/A   Clear
12:55 AM 13.1 °F 5.4 °F 8.4 °F 82% 30.48 in 10.0 mi NNW 4.6 mph - N/A   Clear
1:15 AM 12.9 °F 3.8 °F 8.1 °F 81% 30.49 in 10.0 mi NNW 5.8 mph - N/A   Clear
1:35 AM 12.6 °F 4.8 °F 8.1 °F 82% 30.50 in 10.0 mi NNW 4.6 mph - N/A   Clear
1:55 AM 12.2 °F - 7.7 °F 82% 30.50 in 10.0 mi Calm Calm - N/A   Clear
2:15 AM 11.7 °F 5.5 °F 7.7 °F 84% 30.52 in 10.0 mi West 3.5 mph - N/A   Clear
2:35 AM 11.8 °F 3.9 °F 7.7 °F 83% 30.52 in 10.0 mi NW 4.6 mph - N/A   Clear
2:55 AM 11.1 °F 4.9 °F 7.2 °F 84% 30.51 in 10.0 mi NW 3.5 mph - N/A   Clear
3:15 AM 11.1 °F 3.1 °F 7.2 °F 84% 30.50 in 10.0 mi NNW 4.6 mph - N/A   Clear
3:35 AM 10.9 °F 4.7 °F 7.2 °F 85% 30.50 in 10.0 mi NNW 3.5 mph - N/A   Clear
3:55 AM 10.8 °F 4.5 °F 6.8 °F 84% 30.49 in 10.0 mi NNW 3.5 mph - N/A   Clear
4:15 AM 10.6 °F 2.5 °F 7.2 °F 86% 30.50 in 10.0 mi WNW 4.6 mph - N/A   Clear
4:35 AM 10.8 °F - 7.0 °F 85% 30.50 in 10.0 mi Calm Calm - N/A   Clear
4:55 AM 10.9 °F - 6.8 °F 83% 30.50 in 10.0 mi Calm Calm - N/A   Clear
5:15 AM 10.0 °F 0.4 °F 6.4 °F 85% 30.52 in 10.0 mi West 5.8 mph - N/A   Clear
5:35 AM 10.2 °F 2.0 °F 6.6 °F 85% 30.52 in 10.0 mi NW 4.6 mph - N/A   Clear
5:55 AM 9.5 °F 3.0 °F 6.1 °F 86% 30.52 in 10.0 mi NNW 3.5 mph - N/A   Clear
6:15 AM 9.5 °F 3.0 °F 6.3 °F 87% 30.53 in 10.0 mi NW 3.5 mph - N/A   Clear
6:35 AM 9.7 °F 3.2 °F 6.3 °F 86% 30.53 in 10.0 mi NNW 3.5 mph - N/A   Clear
6:55 AM 9.9 °F 3.4 °F 6.4 °F 86% 30.53 in 10.0 mi North 3.5 mph - N/A   Clear
7:15 AM 9.5 °F - 6.3 °F 87% 30.55 in 10.0 mi Calm Calm - N/A   Clear
7:35 AM 10.2 °F - 6.8 °F 86% 30.55 in 10.0 mi Calm Calm - N/A   Clear
7:55 AM 10.9 °F - 6.8 °F 83% 30.55 in 10.0 mi Calm Calm - N/A   Clear
8:15 AM 11.7 °F - 7.0 °F 81% 30.56 in 10.0 mi Calm Calm - N/A   Clear
8:35 AM 12.7 °F - 7.5 °F 80% 30.57 in 10.0 mi Calm Calm - N/A   Clear
8:55 AM 13.8 °F - 9.0 °F 81% 30.56 in 10.0 mi Calm Calm - N/A   Clear
9:15 AM 14.2 °F 8.4 °F 9.1 °F 80% 30.57 in 10.0 mi SSW 3.5 mph - N/A   Clear
9:35 AM 15.1 °F - 9.9 °F 80% 30.57 in 10.0 mi Calm Calm - N/A   Clear
9:55 AM 16.0 °F - 10.6 °F 79% 30.56 in 10.0 mi Calm Calm - N/A   Clear
10:15 AM 18.0 °F 11.1 °F 12.0 °F 78% 30.55 in 10.0 mi SSE 4.6 mph - N/A   Clear
10:35 AM 18.9 °F 12.1 °F 12.0 °F 75% 30.53 in 10.0 mi SSE 4.6 mph - N/A   Clear
10:55 AM 20.7 °F 11.9 °F 13.3 °F 73% 30.52 in 10.0 mi SSE 6.9 mph - N/A   Clear
11:15 AM 21.9 °F 13.4 °F 13.6 °F 70% 30.51 in 10.0 mi SSE 6.9 mph - N/A   Clear
11:35 AM 23.0 °F 13.1 °F 14.4 °F 70% 30.48 in 10.0 mi SSE 9.2 mph - N/A   Clear
11:55 AM 24.3 °F 12.7 °F 14.5 °F 67% 30.46 in 10.0 mi SSE 12.7 mph - N/A   Clear
12:15 PM 25.9 °F 16.6 °F 13.8 °F 60% 30.45 in 10.0 mi South 9.2 mph 16.1 mph N/A   Clear
12:35 PM 26.2 °F 16.4 °F 12.7 °F 57% 30.44 in 10.0 mi SSE 10.4 mph 17.3 mph N/A   Clear
12:55 PM 27.3 °F 19.9 °F 13.8 °F 57% 30.42 in 10.0 mi SSE 6.9 mph 21.9 mph N/A   Clear
1:15 PM 27.5 °F 18.0 °F 14.0 °F 57% 30.42 in 10.0 mi South 10.4 mph - N/A   Clear
1:35 PM 27.5 °F 17.4 °F 12.7 °F 54% 30.41 in 10.0 mi South 11.5 mph - N/A   Clear
1:55 PM 27.9 °F 18.4 °F 12.6 °F 53% 30.39 in 10.0 mi SSE 10.4 mph - N/A   Clear
2:35 PM 28.4 °F 18.5 °F 13.3 °F 53% 30.37 in 10.0 mi South 11.5 mph - N/A   Clear
2:55 PM 27.7 °F 17.6 °F 13.8 °F 56% 30.37 in 10.0 mi SSE 11.5 mph - N/A   Clear
3:15 PM 27.3 °F 17.7 °F 13.6 °F 56% 30.37 in 10.0 mi SSE 10.4 mph - N/A   Clear
3:35 PM 28.0 °F 18.1 °F 14.2 °F 56% 30.37 in 10.0 mi South 11.5 mph - N/A   Clear
3:55 PM 28.2 °F 17.7 °F 12.2 °F 51% 30.36 in 10.0 mi South 12.7 mph - N/A   Clear
4:15 PM 27.5 °F 16.8 °F 12.9 °F 54% 30.35 in 10.0 mi South 12.7 mph 18.4 mph N/A   Clear
4:35 PM 27.1 °F 15.9 °F 12.9 °F 55% 30.34 in 10.0 mi South 13.8 mph - N/A   Clear
4:55 PM 26.4 °F 14.5 °F 13.3 °F 58% 30.33 in 10.0 mi South 15.0 mph - N/A   Clear
5:15 PM 26.2 °F 17.1 °F 13.3 °F 58% 30.33 in 10.0 mi South 9.2 mph - N/A   Clear
5:35 PM 25.7 °F 16.4 °F 14.4 °F 62% 30.32 in 10.0 mi SSE 9.2 mph - N/A   Clear
5:55 PM 25.5 °F 16.9 °F 14.2 °F 62% 30.32 in 10.0 mi SSE 8.1 mph - N/A   Clear
6:15 PM 24.6 °F 16.7 °F 15.4 °F 68% 30.32 in 10.0 mi SSE 6.9 mph - N/A   Clear
6:35 PM 24.4 °F 15.6 °F 15.3 °F 68% 30.32 in 10.0 mi SSE 8.1 mph - N/A   Clear
6:55 PM 24.1 °F 15.2 °F 15.6 °F 70% 30.31 in 10.0 mi SSE 8.1 mph - N/A   Clear
7:15 PM 23.5 °F 13.7 °F 15.1 °F 70% 30.30 in 10.0 mi SSE 9.2 mph - N/A   Clear
7:35 PM 23.5 °F 14.5 °F 14.9 °F 70% 30.29 in 10.0 mi SSE 8.1 mph - N/A   Clear
7:55 PM 23.0 °F 13.9 °F 14.7 °F 71% 30.28 in 10.0 mi SSE 8.1 mph - N/A   Clear
8:15 PM 23.0 °F 13.9 °F 14.9 °F 71% 30.27 in 10.0 mi SSE 8.1 mph - N/A   Clear
8:35 PM 22.6 °F 12.6 °F 14.9 °F 72% 30.26 in 10.0 mi SSE 9.2 mph - N/A   Clear
8:55 PM 22.6 °F 12.6 °F 15.1 °F 73% 30.25 in 10.0 mi SSE 9.2 mph - N/A   Clear
9:15 PM 22.8 °F 12.2 °F 14.9 °F 72% 30.24 in 10.0 mi SSE 10.4 mph - N/A   Clear
9:35 PM 22.6 °F 13.4 °F 15.4 °F 74% 30.23 in 10.0 mi SSE 8.1 mph - N/A   Clear
9:55 PM 22.6 °F 12.6 °F 14.9 °F 72% 30.22 in 10.0 mi SSE 9.2 mph - N/A   Clear
10:15 PM 22.5 °F 14.1 °F 14.9 °F 73% 30.22 in 10.0 mi SSE 6.9 mph - N/A   Clear
10:35 PM 22.1 °F 13.7 °F 15.4 °F 76% 30.21 in 10.0 mi SSE 6.9 mph - N/A   Clear
10:55 PM 21.6 °F 14.0 °F 15.6 °F 78% 30.20 in 10.0 mi SSE 5.8 mph - N/A   Clear
11:15 PM 23.2 °F 12.6 °F 14.4 °F 69% 30.20 in 10.0 mi South 10.4 mph - N/A   Clear
11:35 PM 26.2 °F 14.7 °F 12.2 °F 55% 30.19 in 10.0 mi South 13.8 mph - N/A   Clear
11:55 PM 26.2 °F 15.2 °F 12.2 °F 55% 30.19 in 10.0 mi South 12.7 mph - N/A   Clear